Simultaneous Nadir Overpasses (SNOs) Predictions

Prediction of SNOs between NOAA-15 and METOP-C Satellite Orbit:

Table of predicted SNOs for the next 14.0 days since TLE Epoch: 2/18/2023
Index Date (NOAA-15) Time (NOAA-15) Lat,Lon (NOAA-15) SZA (NOAA-15 ) Date (METOP-C) Time (METOP-C) Lat,Lon (METOP-C) SZA (METOP-C ) Distance(km) Time Diff (sec)
1 02/21/2023 16:54:09 81.08, -35.03 93.10 02/21/2023 16:52:58 81.06, -35.14 93.06 2.26 71
2 02/21/2023 17:44:41 -81.07, 132.37 86.91 02/21/2023 17:43:39 -81.08, 132.53 86.92 2.81 62
3 02/21/2023 18:35:10 81.07, -60.17 93.08 02/21/2023 18:34:19 81.07, -60.26 93.06 1.63 51
4 02/21/2023 19:25:42 -81.07, 107.23 86.93 02/21/2023 19:25:01 -81.07, 107.04 86.96 3.38 41
5 02/21/2023 20:16:11 81.06, -85.30 93.06 02/21/2023 20:15:40 81.08, -85.38 93.06 2.22 31
6 02/21/2023 21:06:44 -81.08, 81.73 86.97 02/21/2023 21:06:22 -81.08, 81.91 86.96 3.24 22
7 02/21/2023 21:57:13 81.08,-110.80 93.03 02/21/2023 21:57:02 81.07,-110.88 93.01 1.40 11
8 02/21/2023 22:47:44 -81.07, 56.59 86.99 02/21/2023 22:47:43 -81.07, 56.42 87.01 2.94 1
9 02/21/2023 23:38:13 81.07,-135.94 93.01 02/21/2023 23:38:22 81.08,-136.01 93.01 1.77 9
10 02/22/2023 00:28:45 -81.07, 31.45 87.01 02/22/2023 00:29:04 -81.08, 31.30 87.01 2.98 19
11 02/22/2023 01:19:15 81.08,-161.44 92.97 02/22/2023 01:19:44 81.08,-161.50 92.97 1.27 29
12 02/22/2023 02:09:47 -81.08, 5.94 87.05 02/22/2023 02:10:26 -81.07, 5.80 87.05 2.56 39
13 02/22/2023 03:00:16 81.08, 173.43 92.95 02/22/2023 03:01:05 81.08, 173.37 92.97 1.33 49
14 02/22/2023 03:50:48 -81.08, -19.19 87.07 02/22/2023 03:51:47 -81.08, -19.32 87.05 2.41 59



Historial Predications of SNOs between NOAA-15 and METOP-C
